Year,Month,Day,Hour,Minute,Value (Times are PST for temperature in C)
2015,02,17,00,00,7.10
2015,02,17,00,01,7.10
2015,02,17,00,02,7.10
2015,02,17,00,03,7.10
2015,02,17,00,04,7.10
2015,02,17,00,05,7.10
2015,02,17,00,06,7.00
2015,02,17,00,07,7.00
2015,02,17,00,08,7.00
2015,02,17,00,09,7.10
2015,02,17,00,10,7.10
2015,02,17,00,11,7.10
2015,02,17,00,12,7.20
2015,02,17,00,13,7.20
2015,02,17,00,14,7.20
2015,02,17,00,15,7.20
2015,02,17,00,16,7.20
2015,02,17,00,17,7.30
2015,02,17,00,18,7.30
2015,02,17,00,19,7.30
2015,02,17,00,20,7.30
2015,02,17,00,21,7.30
2015,02,17,00,22,7.20
2015,02,17,00,23,7.20
2015,02,17,00,24,7.20
2015,02,17,00,25,7.20
2015,02,17,00,26,7.10
2015,02,17,00,27,7.10
2015,02,17,00,28,7.10
2015,02,17,00,29,7.10
2015,02,17,00,30,7.00
2015,02,17,00,31,7.00
2015,02,17,00,32,7.00
2015,02,17,00,33,6.90
2015,02,17,00,34,6.90
2015,02,17,00,35,6.90
2015,02,17,00,36,6.90
2015,02,17,00,37,6.90
2015,02,17,00,38,6.90
2015,02,17,00,39,6.90
2015,02,17,00,40,6.90
2015,02,17,00,41,6.90
2015,02,17,00,42,6.90
2015,02,17,00,43,6.90
2015,02,17,00,44,6.90
2015,02,17,00,45,6.90
2015,02,17,00,46,6.90
2015,02,17,00,47,6.80
2015,02,17,00,48,6.80
2015,02,17,00,49,6.80
2015,02,17,00,50,6.80
2015,02,17,00,51,6.70
2015,02,17,00,52,6.70
2015,02,17,00,53,6.60
2015,02,17,00,54,6.60
2015,02,17,00,55,6.60
2015,02,17,00,56,6.60
2015,02,17,00,57,6.60
2015,02,17,00,58,6.50
2015,02,17,00,59,6.40
2015,02,17,01,00,6.40
2015,02,17,01,01,6.40
2015,02,17,01,02,6.40
2015,02,17,01,03,6.40
2015,02,17,01,04,6.40
2015,02,17,01,05,6.40
2015,02,17,01,06,6.40
2015,02,17,01,07,6.40
2015,02,17,01,08,6.30
2015,02,17,01,09,6.20
2015,02,17,01,10,6.20
2015,02,17,01,11,6.20
2015,02,17,01,12,6.10
2015,02,17,01,13,6.00
2015,02,17,01,14,6.00
2015,02,17,01,15,5.90
2015,02,17,01,16,5.80
2015,02,17,01,17,5.70
2015,02,17,01,18,5.70
2015,02,17,01,19,5.60
2015,02,17,01,20,5.60
2015,02,17,01,21,5.60
2015,02,17,01,22,5.60
2015,02,17,01,23,5.60
2015,02,17,01,24,5.60
2015,02,17,01,25,5.60
2015,02,17,01,26,5.60
2015,02,17,01,27,5.60
2015,02,17,01,28,5.70
2015,02,17,01,29,5.70
2015,02,17,01,30,5.70
2015,02,17,01,31,5.70
2015,02,17,01,32,5.70
2015,02,17,01,33,5.70
2015,02,17,01,34,5.70
2015,02,17,01,35,5.80
2015,02,17,01,36,5.90
2015,02,17,01,37,6.00
2015,02,17,01,38,6.00
2015,02,17,01,39,6.10
2015,02,17,01,40,6.10
2015,02,17,01,41,6.10
2015,02,17,01,42,6.10
2015,02,17,01,43,6.10
2015,02,17,01,44,6.10
2015,02,17,01,45,6.10
2015,02,17,01,46,6.10
2015,02,17,01,47,6.10
2015,02,17,01,48,6.00
2015,02,17,01,49,6.10
2015,02,17,01,50,6.10
2015,02,17,01,51,6.20
2015,02,17,01,52,6.20
2015,02,17,01,53,6.20
2015,02,17,01,54,6.30
2015,02,17,01,55,6.30
2015,02,17,01,56,6.20
2015,02,17,01,57,6.20
2015,02,17,01,58,6.20
2015,02,17,01,59,6.30
2015,02,17,02,00,6.30
2015,02,17,02,01,6.30
2015,02,17,02,02,6.30
2015,02,17,02,03,6.30
2015,02,17,02,04,6.30
2015,02,17,02,05,6.20
2015,02,17,02,06,6.20
2015,02,17,02,07,6.20
2015,02,17,02,08,6.20
2015,02,17,02,09,6.20
2015,02,17,02,10,6.20
2015,02,17,02,11,6.20
2015,02,17,02,12,6.20
2015,02,17,02,13,6.20
2015,02,17,02,14,6.20
2015,02,17,02,15,6.20
2015,02,17,02,16,6.30
2015,02,17,02,17,6.40
2015,02,17,02,18,6.40
2015,02,17,02,19,6.50
2015,02,17,02,20,6.60
2015,02,17,02,21,6.70
2015,02,17,02,22,6.80
2015,02,17,02,23,6.80
2015,02,17,02,24,6.80
2015,02,17,02,25,6.90
2015,02,17,02,26,6.90
2015,02,17,02,27,7.00
2015,02,17,02,28,7.00
2015,02,17,02,29,7.10
2015,02,17,02,30,7.20
2015,02,17,02,31,7.20
2015,02,17,02,32,7.30
2015,02,17,02,33,7.30
2015,02,17,02,34,7.30
2015,02,17,02,35,7.40
2015,02,17,02,36,7.40
2015,02,17,02,37,7.50
2015,02,17,02,38,7.50
2015,02,17,02,39,7.60
2015,02,17,02,40,7.60
2015,02,17,02,41,7.60
2015,02,17,02,42,7.60
2015,02,17,02,43,7.60
2015,02,17,02,44,7.60
2015,02,17,02,45,7.60
2015,02,17,02,46,7.60
2015,02,17,02,47,7.50
2015,02,17,02,48,7.50
2015,02,17,02,49,7.40
2015,02,17,02,50,7.40
2015,02,17,02,51,7.40
2015,02,17,02,52,7.30
2015,02,17,02,53,7.30
2015,02,17,02,54,7.30
2015,02,17,02,55,7.30
2015,02,17,02,56,7.30
2015,02,17,02,57,7.30
2015,02,17,02,58,7.30
2015,02,17,02,59,7.30
2015,02,17,03,00,7.30
2015,02,17,03,01,7.30
2015,02,17,03,02,7.30
2015,02,17,03,03,7.30
2015,02,17,03,04,7.40
2015,02,17,03,05,7.40
2015,02,17,03,06,7.40
2015,02,17,03,07,7.40
2015,02,17,03,08,7.50
2015,02,17,03,09,7.50
2015,02,17,03,10,7.60
2015,02,17,03,11,7.60
2015,02,17,03,12,7.70
2015,02,17,03,13,7.70
2015,02,17,03,14,7.80
2015,02,17,03,15,7.80
2015,02,17,03,16,7.80
2015,02,17,03,17,7.80
2015,02,17,03,18,7.80
2015,02,17,03,19,7.90
2015,02,17,03,20,7.90
2015,02,17,03,21,8.00
2015,02,17,03,22,8.00
2015,02,17,03,23,8.00
2015,02,17,03,24,8.00
2015,02,17,03,25,8.00
2015,02,17,03,26,8.00
2015,02,17,03,27,8.00
2015,02,17,03,28,8.00
2015,02,17,03,29,8.10
2015,02,17,03,30,8.10
2015,02,17,03,31,8.10
2015,02,17,03,32,8.10
2015,02,17,03,33,8.10
2015,02,17,03,34,8.10
2015,02,17,03,35,8.20
2015,02,17,03,36,8.20
2015,02,17,03,37,8.20
2015,02,17,03,38,8.20
2015,02,17,03,39,8.20
2015,02,17,03,40,8.20
2015,02,17,03,41,8.20
2015,02,17,03,42,8.20
2015,02,17,03,43,8.20
2015,02,17,03,44,8.20
2015,02,17,03,45,8.20
2015,02,17,03,46,8.20
2015,02,17,03,47,8.10
2015,02,17,03,48,8.10
2015,02,17,03,49,8.10
2015,02,17,03,50,8.10
2015,02,17,03,51,8.00
2015,02,17,03,52,8.00
2015,02,17,03,53,8.00
2015,02,17,03,54,7.90
2015,02,17,03,55,7.90
2015,02,17,03,56,7.80
2015,02,17,03,57,7.80
2015,02,17,03,58,7.80
2015,02,17,03,59,7.80
2015,02,17,04,00,7.70
2015,02,17,04,01,7.60
2015,02,17,04,02,7.60
2015,02,17,04,03,7.60
2015,02,17,04,04,7.50
2015,02,17,04,05,7.40
2015,02,17,04,06,7.40
2015,02,17,04,07,7.30
2015,02,17,04,08,7.30
2015,02,17,04,09,7.30
2015,02,17,04,10,7.30
2015,02,17,04,11,7.30
2015,02,17,04,12,7.20
2015,02,17,04,13,7.20
2015,02,17,04,14,7.20
2015,02,17,04,15,7.20
2015,02,17,04,16,7.10
2015,02,17,04,17,7.10
2015,02,17,04,18,7.10
2015,02,17,04,19,7.10
2015,02,17,04,20,7.10
2015,02,17,04,21,7.10
2015,02,17,04,22,7.10
2015,02,17,04,23,7.10
2015,02,17,04,24,7.20
2015,02,17,04,25,7.10
2015,02,17,04,26,7.20
2015,02,17,04,27,7.20
2015,02,17,04,28,7.20
2015,02,17,04,29,7.20
2015,02,17,04,30,7.30
2015,02,17,04,31,7.30
2015,02,17,04,32,7.30
2015,02,17,04,33,7.30
2015,02,17,04,34,7.30
2015,02,17,04,35,7.40
2015,02,17,04,36,7.40
2015,02,17,04,37,7.50
2015,02,17,04,38,7.50
2015,02,17,04,39,7.50
2015,02,17,04,40,7.50
2015,02,17,04,41,7.60
2015,02,17,04,42,7.60
2015,02,17,04,43,7.70
2015,02,17,04,44,7.70
2015,02,17,04,45,7.70
2015,02,17,04,46,7.70
2015,02,17,04,47,7.70
2015,02,17,04,48,7.70
2015,02,17,04,49,7.70
2015,02,17,04,50,7.70
2015,02,17,04,51,7.70
2015,02,17,04,52,7.70
2015,02,17,04,53,7.70
2015,02,17,04,54,7.70
2015,02,17,04,55,7.70
2015,02,17,04,56,7.70
2015,02,17,04,57,7.70
2015,02,17,04,58,7.80
2015,02,17,04,59,7.80
2015,02,17,05,00,7.80
2015,02,17,05,01,7.80
2015,02,17,05,02,7.80
2015,02,17,05,03,7.80
2015,02,17,05,04,7.80
2015,02,17,05,05,7.80
2015,02,17,05,06,7.80
2015,02,17,05,07,7.80
2015,02,17,05,08,7.80
2015,02,17,05,09,7.90
2015,02,17,05,10,7.90
2015,02,17,05,11,7.90
2015,02,17,05,12,7.90
2015,02,17,05,13,7.80
2015,02,17,05,14,7.80
2015,02,17,05,15,7.80
2015,02,17,05,16,7.80
2015,02,17,05,17,7.80
2015,02,17,05,18,7.80
2015,02,17,05,19,7.80
2015,02,17,05,20,7.80
2015,02,17,05,21,7.80
2015,02,17,05,22,7.70
2015,02,17,05,23,7.70
2015,02,17,05,24,7.70
2015,02,17,05,25,7.70
2015,02,17,05,26,7.70
2015,02,17,05,27,7.60
2015,02,17,05,28,7.60
2015,02,17,05,29,7.60
2015,02,17,05,30,7.60
2015,02,17,05,31,7.60
2015,02,17,05,32,7.60
2015,02,17,05,33,7.50
2015,02,17,05,34,7.50
2015,02,17,05,35,7.50
2015,02,17,05,36,7.50
2015,02,17,05,37,7.60
2015,02,17,05,38,7.60
2015,02,17,05,39,7.60
2015,02,17,05,40,7.60
2015,02,17,05,41,7.60
2015,02,17,05,42,7.60
2015,02,17,05,43,7.60
2015,02,17,05,44,7.60
2015,02,17,05,45,7.60
2015,02,17,05,46,7.60
2015,02,17,05,47,7.60
2015,02,17,05,48,7.60
2015,02,17,05,49,7.60
2015,02,17,05,50,7.60
2015,02,17,05,51,7.50
2015,02,17,05,52,7.50
2015,02,17,05,53,7.40
2015,02,17,05,54,7.40
2015,02,17,05,55,7.40
2015,02,17,05,56,7.40
2015,02,17,05,57,7.40
2015,02,17,05,58,7.40
2015,02,17,05,59,7.40
2015,02,17,06,00,7.30
2015,02,17,06,01,7.30
2015,02,17,06,02,7.30
2015,02,17,06,03,7.30
2015,02,17,06,04,7.30
2015,02,17,06,05,7.30
2015,02,17,06,06,7.30
2015,02,17,06,07,7.30
2015,02,17,06,08,7.30
2015,02,17,06,09,7.20
2015,02,17,06,10,7.20
2015,02,17,06,11,7.20
2015,02,17,06,12,7.20
2015,02,17,06,13,7.20
2015,02,17,06,14,7.20
2015,02,17,06,15,7.10
2015,02,17,06,16,7.10
2015,02,17,06,17,7.10
2015,02,17,06,18,7.10
2015,02,17,06,19,7.10
2015,02,17,06,20,7.10
2015,02,17,06,21,7.10
2015,02,17,06,22,7.10
2015,02,17,06,23,7.10
2015,02,17,06,24,7.10
2015,02,17,06,25,7.10
2015,02,17,06,26,7.10
2015,02,17,06,27,7.10
2015,02,17,06,28,7.10
2015,02,17,06,29,7.00
2015,02,17,06,30,7.00
2015,02,17,06,31,7.00
2015,02,17,06,32,7.00
2015,02,17,06,33,6.90
2015,02,17,06,34,6.90
2015,02,17,06,35,6.80
2015,02,17,06,36,6.80
2015,02,17,06,37,6.70
2015,02,17,06,38,6.60
2015,02,17,06,39,6.40
2015,02,17,06,40,6.30
2015,02,17,06,41,6.20
2015,02,17,06,42,6.20
2015,02,17,06,43,6.10
2015,02,17,06,44,6.00
2015,02,17,06,45,6.00
2015,02,17,06,46,6.00
2015,02,17,06,47,6.00
2015,02,17,06,48,6.00
2015,02,17,06,49,6.00
2015,02,17,06,50,6.00
2015,02,17,06,51,6.10
2015,02,17,06,52,6.10
2015,02,17,06,53,6.20
2015,02,17,06,54,6.20
2015,02,17,06,55,6.30
2015,02,17,06,56,6.40
2015,02,17,06,57,6.50
2015,02,17,06,58,6.60
2015,02,17,06,59,6.70
2015,02,17,07,00,6.80
2015,02,17,07,01,6.80
2015,02,17,07,02,6.90
2015,02,17,07,03,6.90
2015,02,17,07,04,6.90
2015,02,17,07,05,6.90
2015,02,17,07,06,6.90
2015,02,17,07,07,6.90
2015,02,17,07,08,6.90
2015,02,17,07,09,6.80
2015,02,17,07,10,6.80
2015,02,17,07,11,6.80
2015,02,17,07,12,6.80
2015,02,17,07,13,6.80
2015,02,17,07,14,6.80
2015,02,17,07,15,6.80
2015,02,17,07,16,6.80
2015,02,17,07,17,6.80
2015,02,17,07,18,6.80
2015,02,17,07,19,6.80
2015,02,17,07,20,6.80
2015,02,17,07,21,6.80
2015,02,17,07,22,6.70
2015,02,17,07,23,6.70
2015,02,17,07,24,6.70
2015,02,17,07,25,6.70
2015,02,17,07,26,6.70
2015,02,17,07,27,6.70
2015,02,17,07,28,6.70
2015,02,17,07,29,6.70
2015,02,17,07,30,6.70
2015,02,17,07,31,6.70
2015,02,17,07,32,6.60
2015,02,17,07,33,6.60
2015,02,17,07,34,6.60
2015,02,17,07,35,6.60
2015,02,17,07,36,6.60
2015,02,17,07,37,6.60
2015,02,17,07,38,6.60
2015,02,17,07,39,6.60
2015,02,17,07,40,6.60
2015,02,17,07,41,6.60
2015,02,17,07,42,6.60
2015,02,17,07,43,6.60
2015,02,17,07,44,6.60
2015,02,17,07,45,6.60
2015,02,17,07,46,6.60
2015,02,17,07,47,6.60
2015,02,17,07,48,6.60
2015,02,17,07,49,6.60
2015,02,17,07,50,6.60
2015,02,17,07,51,6.70
2015,02,17,07,52,6.70
2015,02,17,07,53,6.70
2015,02,17,07,54,6.70
2015,02,17,07,55,6.80
2015,02,17,07,56,6.80
2015,02,17,07,57,6.80
2015,02,17,07,58,6.80
2015,02,17,07,59,6.90
2015,02,17,08,00,6.90
2015,02,17,08,01,7.00
2015,02,17,08,02,7.00
2015,02,17,08,03,7.10
2015,02,17,08,04,7.10
2015,02,17,08,05,7.20
2015,02,17,08,06,7.30
2015,02,17,08,07,7.30
2015,02,17,08,08,7.40
2015,02,17,08,09,7.50
2015,02,17,08,10,7.60
2015,02,17,08,11,7.60
2015,02,17,08,12,7.70
2015,02,17,08,13,7.70
2015,02,17,08,14,7.80
2015,02,17,08,15,7.80
2015,02,17,08,16,7.90
2015,02,17,08,17,7.90
2015,02,17,08,18,7.90
2015,02,17,08,19,8.00
2015,02,17,08,20,8.00
2015,02,17,08,21,8.00
2015,02,17,08,22,8.10
2015,02,17,08,23,8.10
2015,02,17,08,24,8.10
2015,02,17,08,25,8.10
2015,02,17,08,26,8.10
2015,02,17,08,27,8.20
2015,02,17,08,28,8.20
2015,02,17,08,29,8.20
2015,02,17,08,30,8.20
2015,02,17,08,31,8.20
2015,02,17,08,32,8.20
2015,02,17,08,33,8.20
2015,02,17,08,34,8.20
2015,02,17,08,35,8.30
2015,02,17,08,36,8.30
2015,02,17,08,37,8.30
2015,02,17,08,38,8.40
2015,02,17,08,39,8.40
2015,02,17,08,40,8.50
2015,02,17,08,41,8.50
2015,02,17,08,42,8.60
2015,02,17,08,43,8.70
2015,02,17,08,44,8.70
2015,02,17,08,45,8.70
2015,02,17,08,46,8.80
2015,02,17,08,47,8.80
2015,02,17,08,48,8.90
2015,02,17,08,49,8.90
2015,02,17,08,50,9.00
2015,02,17,08,51,9.00
2015,02,17,08,52,9.10
2015,02,17,08,53,9.10
2015,02,17,08,54,9.20
2015,02,17,08,55,9.20
2015,02,17,08,56,9.20
2015,02,17,08,57,9.30
2015,02,17,08,58,9.30
2015,02,17,08,59,9.40
2015,02,17,09,00,9.50
2015,02,17,09,01,9.50
2015,02,17,09,02,9.60
2015,02,17,09,03,9.60
2015,02,17,09,04,9.70
2015,02,17,09,05,9.70
2015,02,17,09,06,9.70
2015,02,17,09,07,9.80
2015,02,17,09,08,9.80
2015,02,17,09,09,9.90
2015,02,17,09,10,9.90
2015,02,17,09,11,9.90
2015,02,17,09,12,9.90
2015,02,17,09,13,9.90
2015,02,17,09,14,9.90
2015,02,17,09,15,10.10
2015,02,17,09,16,10.10
2015,02,17,09,17,10.10
2015,02,17,09,18,10.10
2015,02,17,09,19,10.10
2015,02,17,09,20,10.10
2015,02,17,09,21,10.20
2015,02,17,09,22,10.20
2015,02,17,09,23,10.20
2015,02,17,09,24,10.30
2015,02,17,09,25,10.30
2015,02,17,09,26,10.30
2015,02,17,09,27,10.40
2015,02,17,09,28,10.40
2015,02,17,09,29,10.40
2015,02,17,09,30,10.40
2015,02,17,09,31,10.50
2015,02,17,09,32,10.60
2015,02,17,09,33,10.60
2015,02,17,09,34,10.60
2015,02,17,09,35,10.60
2015,02,17,09,36,10.60
2015,02,17,09,37,10.60
2015,02,17,09,38,10.60
2015,02,17,09,39,10.60
2015,02,17,09,40,10.60
2015,02,17,09,41,10.60
2015,02,17,09,42,10.60
2015,02,17,09,43,10.60
2015,02,17,09,44,10.60
2015,02,17,09,45,10.60
2015,02,17,09,46,10.60
2015,02,17,09,47,10.60
2015,02,17,09,48,10.60
2015,02,17,09,49,10.60
2015,02,17,09,50,10.60
2015,02,17,09,51,10.60
2015,02,17,09,52,10.60
2015,02,17,09,53,10.60
2015,02,17,09,54,10.60
2015,02,17,09,55,10.60
2015,02,17,09,56,10.60
2015,02,17,09,57,10.70
2015,02,17,09,58,10.70
2015,02,17,09,59,10.80
2015,02,17,10,00,10.80
2015,02,17,10,01,10.70
2015,02,17,10,02,10.70
2015,02,17,10,03,10.60
2015,02,17,10,04,10.60
2015,02,17,10,05,10.60
2015,02,17,10,06,10.60
2015,02,17,10,07,10.60
2015,02,17,10,08,10.60
2015,02,17,10,09,10.70
2015,02,17,10,10,10.70
2015,02,17,10,11,10.70
2015,02,17,10,12,10.70
2015,02,17,10,13,10.70
2015,02,17,10,14,10.70
2015,02,17,10,15,10.70
2015,02,17,10,16,10.70
2015,02,17,10,17,10.70
2015,02,17,10,18,10.60
2015,02,17,10,19,10.60
2015,02,17,10,20,10.60
2015,02,17,10,21,10.60
2015,02,17,10,22,10.60
2015,02,17,10,23,10.60
2015,02,17,10,24,10.70
2015,02,17,10,25,10.70
2015,02,17,10,26,10.70
2015,02,17,10,27,10.70
2015,02,17,10,28,10.70
2015,02,17,10,29,10.60
2015,02,17,10,30,10.60
2015,02,17,10,31,10.60
2015,02,17,10,32,10.60
2015,02,17,10,33,10.60
2015,02,17,10,34,10.60
2015,02,17,10,35,10.70
2015,02,17,10,36,10.70
2015,02,17,10,37,10.80
2015,02,17,10,38,10.80
2015,02,17,10,39,10.80
2015,02,17,10,40,10.80
2015,02,17,10,41,10.90
2015,02,17,10,42,10.90
2015,02,17,10,43,10.90
2015,02,17,10,44,10.90
2015,02,17,10,45,10.90
2015,02,17,10,46,10.90
2015,02,17,10,47,10.90
2015,02,17,10,48,10.90
2015,02,17,10,49,10.90
2015,02,17,10,50,10.90
2015,02,17,10,51,10.90
2015,02,17,10,52,10.90
2015,02,17,10,53,10.90
2015,02,17,10,54,10.90
2015,02,17,10,55,11.00
2015,02,17,10,56,10.90
2015,02,17,10,57,10.90
2015,02,17,10,58,10.90
2015,02,17,10,59,10.90
2015,02,17,11,00,10.90
2015,02,17,11,01,10.90
2015,02,17,11,02,10.90
2015,02,17,11,03,10.90
2015,02,17,11,04,10.90
2015,02,17,11,05,10.90
2015,02,17,11,06,10.90
2015,02,17,11,07,10.90
2015,02,17,11,08,10.90
2015,02,17,11,09,10.90
2015,02,17,11,10,10.90
2015,02,17,11,11,10.90
2015,02,17,11,12,10.90
2015,02,17,11,13,11.00
2015,02,17,11,14,11.10
2015,02,17,11,15,10.90
2015,02,17,11,16,11.00
2015,02,17,11,17,11.10
2015,02,17,11,18,11.10
2015,02,17,11,19,11.10
2015,02,17,11,20,11.10
2015,02,17,11,21,11.10
2015,02,17,11,22,11.10
2015,02,17,11,23,11.10
2015,02,17,11,24,11.10
2015,02,17,11,25,11.10
2015,02,17,11,26,11.20
2015,02,17,11,27,11.20
2015,02,17,11,28,11.30
2015,02,17,11,29,11.30
2015,02,17,11,30,11.40
2015,02,17,11,31,11.40
2015,02,17,11,32,11.40
2015,02,17,11,33,11.40
2015,02,17,11,34,11.40
2015,02,17,11,35,11.40
2015,02,17,11,36,11.40
2015,02,17,11,37,11.40
2015,02,17,11,38,11.50
2015,02,17,11,39,11.60
2015,02,17,11,40,11.60
2015,02,17,11,41,11.60
2015,02,17,11,42,11.60
2015,02,17,11,43,11.70
2015,02,17,11,44,11.70
2015,02,17,11,45,11.70
2015,02,17,11,46,11.60
2015,02,17,11,47,11.60
2015,02,17,11,48,11.60
2015,02,17,11,49,11.60
2015,02,17,11,50,11.40
2015,02,17,11,51,11.40
2015,02,17,11,52,11.40
2015,02,17,11,53,11.40
2015,02,17,11,54,11.40
2015,02,17,11,55,11.40
2015,02,17,11,56,11.50
2015,02,17,11,57,11.60
2015,02,17,11,58,11.60
2015,02,17,11,59,11.60
2015,02,17,12,00,11.60
2015,02,17,12,01,11.60
2015,02,17,12,02,11.60
2015,02,17,12,03,11.70
2015,02,17,12,04,11.70
2015,02,17,12,05,11.70
2015,02,17,12,06,11.70
2015,02,17,12,07,11.70
2015,02,17,12,08,11.60
2015,02,17,12,09,11.60
2015,02,17,12,10,11.60
2015,02,17,12,11,11.60
2015,02,17,12,12,11.60
2015,02,17,12,13,11.60
2015,02,17,12,14,11.60
2015,02,17,12,15,11.70
2015,02,17,12,16,11.70
2015,02,17,12,17,11.70
2015,02,17,12,18,11.70
2015,02,17,12,19,11.70
2015,02,17,12,20,11.70
2015,02,17,12,21,11.60
2015,02,17,12,22,11.60
2015,02,17,12,23,11.60
2015,02,17,12,24,11.60
2015,02,17,12,25,11.60
2015,02,17,12,26,11.60
2015,02,17,12,27,11.60
2015,02,17,12,28,11.60
2015,02,17,12,29,11.60
2015,02,17,12,30,11.60
2015,02,17,12,31,11.60
2015,02,17,12,32,11.60
2015,02,17,12,33,11.60
2015,02,17,12,34,11.60
2015,02,17,12,35,11.60
2015,02,17,12,36,11.70
2015,02,17,12,37,11.70
2015,02,17,12,38,11.80
2015,02,17,12,39,11.80
2015,02,17,12,40,11.80
2015,02,17,12,41,11.70
2015,02,17,12,42,11.80
2015,02,17,12,43,11.80
2015,02,17,12,44,11.80
2015,02,17,12,45,11.80
2015,02,17,12,46,11.80
2015,02,17,12,47,11.80
2015,02,17,12,48,11.80
2015,02,17,12,49,11.80
2015,02,17,12,50,11.80
2015,02,17,12,51,11.80
2015,02,17,12,52,11.80
2015,02,17,12,53,11.80
2015,02,17,12,54,11.80
2015,02,17,12,55,11.80
2015,02,17,12,56,11.80
2015,02,17,12,57,11.80
2015,02,17,12,58,11.80
2015,02,17,12,59,11.80
2015,02,17,13,00,11.90
2015,02,17,13,01,11.90
2015,02,17,13,02,11.90
2015,02,17,13,03,11.80
2015,02,17,13,04,11.90
2015,02,17,13,05,11.90
2015,02,17,13,06,12.00
2015,02,17,13,07,12.00
2015,02,17,13,08,11.90
2015,02,17,13,09,11.90
2015,02,17,13,10,11.90
2015,02,17,13,11,11.90
2015,02,17,13,12,11.90
2015,02,17,13,13,11.90
2015,02,17,13,14,11.90
2015,02,17,13,15,11.80
2015,02,17,13,16,11.80
2015,02,17,13,17,11.80
2015,02,17,13,18,11.90
2015,02,17,13,19,11.90
2015,02,17,13,20,11.90
2015,02,17,13,21,12.00
2015,02,17,13,22,12.00
2015,02,17,13,23,12.00
2015,02,17,13,24,12.00
2015,02,17,13,25,12.00
2015,02,17,13,26,12.00
2015,02,17,13,27,12.00
2015,02,17,13,28,12.10
2015,02,17,13,29,12.20
2015,02,17,13,30,12.20
2015,02,17,13,31,12.20
2015,02,17,13,32,12.20
2015,02,17,13,33,12.20
2015,02,17,13,34,12.30
2015,02,17,13,35,12.30
2015,02,17,13,36,12.30
2015,02,17,13,37,12.30
2015,02,17,13,38,12.40
2015,02,17,13,39,12.40
2015,02,17,13,40,12.40
2015,02,17,13,41,12.40
2015,02,17,13,42,12.40
2015,02,17,13,43,12.40
2015,02,17,13,44,12.40
2015,02,17,13,45,12.50
2015,02,17,13,46,12.50
2015,02,17,13,47,12.60
2015,02,17,13,48,12.70
2015,02,17,13,49,12.70
2015,02,17,13,50,12.70
2015,02,17,13,51,12.70
2015,02,17,13,52,12.70
2015,02,17,13,53,12.70
2015,02,17,13,54,12.70
2015,02,17,13,55,12.70
2015,02,17,13,56,12.80
2015,02,17,13,57,12.80
2015,02,17,13,58,12.80
2015,02,17,13,59,12.80
2015,02,17,14,00,12.80
2015,02,17,14,01,12.80
2015,02,17,14,02,12.80
2015,02,17,14,03,12.70
2015,02,17,14,04,12.70
2015,02,17,14,05,12.70
2015,02,17,14,06,12.80
2015,02,17,14,07,12.80
2015,02,17,14,08,12.80
2015,02,17,14,09,12.80
2015,02,17,14,10,12.90
2015,02,17,14,11,12.90
2015,02,17,14,12,13.00
2015,02,17,14,13,12.90
2015,02,17,14,14,12.90
2015,02,17,14,15,12.90
2015,02,17,14,16,12.80
2015,02,17,14,17,12.80
2015,02,17,14,18,12.80
2015,02,17,14,19,12.80
2015,02,17,14,20,12.80
2015,02,17,14,21,12.90
2015,02,17,14,22,13.00
2015,02,17,14,23,13.10
2015,02,17,14,24,13.10
2015,02,17,14,25,13.00
2015,02,17,14,26,13.00
2015,02,17,14,27,12.90
2015,02,17,14,28,12.90
2015,02,17,14,29,12.90
2015,02,17,14,30,12.90
2015,02,17,14,31,12.80
2015,02,17,14,32,12.80
2015,02,17,14,33,12.80
2015,02,17,14,34,12.80
2015,02,17,14,35,12.80
2015,02,17,14,36,12.90
2015,02,17,14,37,12.90
2015,02,17,14,38,12.90
2015,02,17,14,39,12.90
2015,02,17,14,40,12.80
2015,02,17,14,41,12.80
2015,02,17,14,42,12.80
2015,02,17,14,43,12.80
2015,02,17,14,44,12.80
2015,02,17,14,45,12.80
2015,02,17,14,46,12.80
2015,02,17,14,47,12.80
2015,02,17,14,48,12.80
2015,02,17,14,49,12.80
2015,02,17,14,50,12.80
2015,02,17,14,51,12.80
2015,02,17,14,52,12.80
2015,02,17,14,53,12.80
2015,02,17,14,54,12.80
2015,02,17,14,55,12.80
2015,02,17,14,56,12.70
2015,02,17,14,57,12.70
2015,02,17,14,58,12.70
2015,02,17,14,59,12.70
2015,02,17,15,00,12.70
2015,02,17,15,01,12.80
2015,02,17,15,02,12.80
2015,02,17,15,03,12.80
2015,02,17,15,04,12.80
2015,02,17,15,05,12.80
2015,02,17,15,06,12.80
2015,02,17,15,07,12.80
2015,02,17,15,08,12.80
2015,02,17,15,09,12.80
2015,02,17,15,10,12.80
2015,02,17,15,11,12.80
2015,02,17,15,12,12.80
2015,02,17,15,13,12.70
2015,02,17,15,14,12.70
2015,02,17,15,15,12.70
2015,02,17,15,16,12.60
2015,02,17,15,17,12.60
2015,02,17,15,18,12.60
2015,02,17,15,19,12.60
2015,02,17,15,20,12.60
2015,02,17,15,21,12.60
2015,02,17,15,22,12.50
2015,02,17,15,23,12.50
2015,02,17,15,24,12.50
2015,02,17,15,25,12.50
2015,02,17,15,26,12.50
2015,02,17,15,27,12.50
2015,02,17,15,28,12.40
2015,02,17,15,29,12.40
2015,02,17,15,30,12.40
2015,02,17,15,31,12.50
2015,02,17,15,32,12.50
2015,02,17,15,33,12.50
2015,02,17,15,34,12.50
2015,02,17,15,35,12.50
2015,02,17,15,36,12.50
2015,02,17,15,37,12.50
2015,02,17,15,38,12.60
2015,02,17,15,39,12.60
2015,02,17,15,40,12.60
2015,02,17,15,41,12.60
2015,02,17,15,42,12.60
2015,02,17,15,43,12.50
2015,02,17,15,44,12.50
2015,02,17,15,45,12.50
2015,02,17,15,46,12.40
2015,02,17,15,47,12.40
2015,02,17,15,48,12.30
2015,02,17,15,49,12.30
2015,02,17,15,50,12.30
2015,02,17,15,51,12.30
2015,02,17,15,52,12.30
2015,02,17,15,53,12.30
2015,02,17,15,54,12.30
2015,02,17,15,55,12.30
2015,02,17,15,56,12.30
2015,02,17,15,57,12.30
2015,02,17,15,58,12.30
2015,02,17,15,59,12.30
2015,02,17,16,00,12.30
2015,02,17,16,01,12.30
2015,02,17,16,02,12.30
2015,02,17,16,03,12.30
2015,02,17,16,04,12.30
2015,02,17,16,05,12.30
2015,02,17,16,06,12.30
2015,02,17,16,07,12.30
2015,02,17,16,08,12.30
2015,02,17,16,09,12.30
2015,02,17,16,10,12.30
2015,02,17,16,11,12.30
2015,02,17,16,12,12.30
2015,02,17,16,13,12.30
2015,02,17,16,14,12.30
2015,02,17,16,15,12.30
2015,02,17,16,16,12.30
2015,02,17,16,17,12.30
2015,02,17,16,18,12.30
2015,02,17,16,19,12.30
2015,02,17,16,20,12.20
2015,02,17,16,21,12.20
2015,02,17,16,22,12.20
2015,02,17,16,23,12.20
2015,02,17,16,24,12.20
2015,02,17,16,25,12.20
2015,02,17,16,26,12.20
2015,02,17,16,27,12.20
2015,02,17,16,28,12.20
2015,02,17,16,29,12.20
2015,02,17,16,30,12.20
2015,02,17,16,31,12.20
2015,02,17,16,32,12.20
2015,02,17,16,33,12.20
2015,02,17,16,34,12.20
2015,02,17,16,35,12.20
2015,02,17,16,36,12.20
2015,02,17,16,37,12.20
2015,02,17,16,38,12.20
2015,02,17,16,39,12.20
2015,02,17,16,40,12.20
2015,02,17,16,41,12.20
2015,02,17,16,42,12.20
2015,02,17,16,43,12.20
2015,02,17,16,44,12.20
2015,02,17,16,45,12.20
2015,02,17,16,46,12.20
2015,02,17,16,47,12.20
2015,02,17,16,48,12.20
2015,02,17,16,49,12.20
2015,02,17,16,50,12.20
2015,02,17,16,51,12.20
2015,02,17,16,52,12.10
2015,02,17,16,53,12.10
2015,02,17,16,54,12.10
2015,02,17,16,55,12.10
2015,02,17,16,56,12.10
2015,02,17,16,57,12.10
2015,02,17,16,58,12.10
2015,02,17,16,59,12.00
2015,02,17,17,00,12.00
2015,02,17,17,01,12.00
2015,02,17,17,02,12.00
2015,02,17,17,03,12.00
2015,02,17,17,04,11.90
2015,02,17,17,05,11.90
2015,02,17,17,06,11.90
2015,02,17,17,07,11.80
2015,02,17,17,08,11.80
2015,02,17,17,09,11.80
2015,02,17,17,10,11.80
2015,02,17,17,11,11.80
2015,02,17,17,12,11.80
2015,02,17,17,13,11.80
2015,02,17,17,14,11.70
2015,02,17,17,15,11.70
2015,02,17,17,16,11.70
2015,02,17,17,17,11.60
2015,02,17,17,18,11.60
2015,02,17,17,19,11.60
2015,02,17,17,20,11.60
2015,02,17,17,21,11.50
2015,02,17,17,22,11.40
2015,02,17,17,23,11.40
2015,02,17,17,24,11.40
2015,02,17,17,25,11.40
2015,02,17,17,26,11.40
2015,02,17,17,27,11.30
2015,02,17,17,28,11.30
2015,02,17,17,29,11.30
2015,02,17,17,30,11.20
2015,02,17,17,31,11.20
2015,02,17,17,32,11.20
2015,02,17,17,33,11.20
2015,02,17,17,34,11.10
2015,02,17,17,35,11.10
2015,02,17,17,36,11.10
2015,02,17,17,37,11.10
2015,02,17,17,38,11.10
2015,02,17,17,39,11.00
2015,02,17,17,40,10.90
2015,02,17,17,41,10.90
2015,02,17,17,42,10.90
2015,02,17,17,43,10.90